• In Netherlands
  • List of Countries
  • For 7 days
  • Water Temperature
  • Satellite Maps
  • Weather Map
  • Weather Widgets
  • user-avatar
    Login

    Hourly Weather Ashtarak

    Today, 20 September, Wednesday

    Time Temperature Precipitation Wind Pressure Humidity
    00:00 +19°C° 0.1 mm 2 mps 661 mmHg 52%
    01:00 +19°C° 0 mm 2 mps 660 mmHg 53%
    02:00 +19°C° 0 mm 1 mps 660 mmHg 55%
    03:00 +19°C° 0 mm 1 mps 660 mmHg 56%
    04:00 +18°C° 0 mm 1 mps 660 mmHg 56%
    05:00 +18°C° 0 mm 1 mps 660 mmHg 56%
    06:00 +18°C° 0 mm 1 mps 660 mmHg 56%
    07:00 +20°C° 0 mm 1 mps 661 mmHg 46%
    08:00 +23°C° 0 mm 1 mps 661 mmHg 37%
    09:00 +26°C° 0 mm 1 mps 662 mmHg 27%
    10:00 +27°C° 0 mm 2 mps 662 mmHg 24%
    11:00 +28°C° 0 mm 2 mps 662 mmHg 22%
    12:00 +30°C° 0 mm 2 mps 662 mmHg 20%
    13:00 +30°C° 0 mm 2 mps 661 mmHg 19%
    14:00 +31°C° 0 mm 2 mps 661 mmHg 19%
    15:00 +31°C° 0 mm 2 mps 661 mmHg 18%
    16:00 +29°C° 0 mm 2 mps 660 mmHg 22%
    17:00 +27°C° 0 mm 2 mps 660 mmHg 26%
    18:00 +24°C° 0 mm 1 mps 659 mmHg 30%
    19:00 +24°C° 0 mm 2 mps 659 mmHg 35%
    20:00 +23°C° 0 mm 2 mps 660 mmHg 39%
    21:00 +21°C° 0 mm 2 mps 660 mmHg 44%
    22:00 +20°C° 0 mm 2 mps 660 mmHg 46%
    23:00 +20°C° 0 mm 2 mps 660 mmHg 49%

    Tomorrow, 21 September, Thursday

    Time Temperature Precipitation Wind Pressure Humidity
    00:00 +19°C° 0 mm 2 mps 660 mmHg 52%
    01:00 +19°C° 0 mm 2 mps 659 mmHg 52%
    02:00 +20°C° 0 mm 1 mps 659 mmHg 53%
    03:00 +19°C° 0 mm 1 mps 659 mmHg 54%
    04:00 +19°C° 0 mm 1 mps 659 mmHg 52%
    05:00 +18°C° 0 mm 1 mps 659 mmHg 51%
    06:00 +18°C° 0 mm 1 mps 659 mmHg 49%
    07:00 +21°C° 0 mm 1 mps 660 mmHg 41%
    08:00 +24°C° 0 mm 1 mps 660 mmHg 33%
    09:00 +27°C° 0 mm 1 mps 661 mmHg 24%
    10:00 +28°C° 0 mm 2 mps 661 mmHg 23%
    11:00 +29°C° 0 mm 2 mps 661 mmHg 21%
    12:00 +31°C° 0 mm 2 mps 661 mmHg 20%
    13:00 +31°C° 0 mm 2 mps 660 mmHg 19%
    14:00 +31°C° 0 mm 2 mps 660 mmHg 19%
    15:00 +31°C° 0 mm 2 mps 660 mmHg 19%
    16:00 +29°C° 0 mm 2 mps 659 mmHg 23%
    17:00 +27°C° 0 mm 2 mps 659 mmHg 27%
    18:00 +25°C° 0 mm 2 mps 658 mmHg 31%
    19:00 +25°C° 0 mm 2 mps 658 mmHg 36%
    20:00 +24°C° 0 mm 2 mps 659 mmHg 41%
    21:00 +23°C° 0 mm 2 mps 659 mmHg 46%
    22:00 +21°C° 0 mm 2 mps 659 mmHg 49%
    23:00 +21°C° 0 mm 2 mps 659 mmHg 52%

    Day after tomorrow, 22 September, Friday

    Time Temperature Precipitation Wind Pressure Humidity
    00:00 +20°C° 0 mm 2 mps 659 mmHg 55%
    01:00 +20°C° 0 mm 2 mps 659 mmHg 57%
    02:00 +19°C° 0 mm 2 mps 658 mmHg 59%
    03:00 +19°C° 0 mm 2 mps 658 mmHg 61%
    04:00 +18°C° 0 mm 2 mps 658 mmHg 62%
    05:00 +18°C° 0 mm 2 mps 658 mmHg 64%
    06:00 +17°C° 0 mm 2 mps 658 mmHg 65%
    07:00 +20°C° 0 mm 2 mps 658 mmHg 54%
    08:00 +23°C° 0 mm 2 mps 659 mmHg 43%
    09:00 +26°C° 0 mm 2 mps 659 mmHg 32%
    10:00 +27°C° 0 mm 2 mps 659 mmHg 28%
    11:00 +29°C° 0 mm 2 mps 659 mmHg 25%
    12:00 +30°C° 0 mm 3 mps 659 mmHg 21%
    13:00 +30°C° 0 mm 3 mps 658 mmHg 21%
    14:00 +30°C° 0 mm 3 mps 658 mmHg 21%
    15:00 +30°C° 0 mm 3 mps 658 mmHg 20%
    16:00 +28°C° 0.1 mm 2 mps 657 mmHg 26%
    17:00 +26°C° 0.1 mm 2 mps 657 mmHg 31%
    18:00 +23°C° 0.1 mm 1 mps 656 mmHg 37%
    19:00 +23°C° 0.1 mm 2 mps 657 mmHg 42%
    20:00 +21°C° 0.1 mm 2 mps 657 mmHg 47%
    21:00 +20°C° 0.1 mm 2 mps 658 mmHg 52%
    22:00 +19°C° 0 mm 2 mps 658 mmHg 55%
    23:00 +19°C° 0 mm 2 mps 658 mmHg 58%

    23 September, Saturday

    Time Temperature Precipitation Wind Pressure Humidity
    00:00 +18°C° 0 mm 2 mps 658 mmHg 60%
    01:00 +18°C° 0 mm 2 mps 658 mmHg 60%
    02:00 +17°C° 0 mm 2 mps 658 mmHg 60%
    03:00 +17°C° 0 mm 2 mps 658 mmHg 60%
    04:00 +17°C° 0 mm 2 mps 658 mmHg 60%
    05:00 +16°C° 0 mm 2 mps 658 mmHg 60%
    06:00 +16°C° 0 mm 1 mps 658 mmHg 60%
    07:00 +19°C° 0 mm 1 mps 659 mmHg 51%
    08:00 +22°C° 0 mm 1 mps 660 mmHg 43%
    09:00 +25°C° 0 mm 1 mps 660 mmHg 34%
    10:00 +26°C° 0 mm 1 mps 660 mmHg 31%
    11:00 +27°C° 0 mm 2 mps 660 mmHg 28%
    12:00 +28°C° 0 mm 2 mps 661 mmHg 25%
    13:00 +29°C° 0 mm 2 mps 660 mmHg 24%
    14:00 +29°C° 0 mm 2 mps 660 mmHg 24%
    15:00 +29°C° 0 mm 2 mps 660 mmHg 23%
    16:00 +27°C° 0 mm 2 mps 660 mmHg 28%
    17:00 +25°C° 0 mm 1 mps 659 mmHg 32%
    18:00 +22°C° 0 mm 1 mps 659 mmHg 37%
    19:00 +21°C° 0.1 mm 2 mps 660 mmHg 42%
    20:00 +20°C° 0.1 mm 2 mps 660 mmHg 47%
    21:00 +19°C° 0.1 mm 3 mps 660 mmHg 52%
    22:00 +19°C° 0.1 mm 2 mps 660 mmHg 54%
    23:00 +18°C° 0.1 mm 2 mps 661 mmHg 56%

    24 September, Sunday

    Time Temperature Precipitation Wind Pressure Humidity
    00:00 +18°C° 0.1 mm 2 mps 661 mmHg 58%
    01:00 +17°C° 0 mm 2 mps 660 mmHg 59%
    02:00 +17°C° 0 mm 2 mps 660 mmHg 60%
    03:00 +16°C° 0 mm 2 mps 660 mmHg 60%
    04:00 +16°C° 0 mm 2 mps 660 mmHg 61%
    05:00 +16°C° 0 mm 2 mps 660 mmHg 62%
    06:00 +15°C° 0 mm 2 mps 661 mmHg 62%
    07:00 +18°C° 0 mm 2 mps 661 mmHg 54%
    08:00 +20°C° 0 mm 2 mps 662 mmHg 46%
    09:00 +24°C° 0 mm 2 mps 662 mmHg 38%
    10:00 +25°C° 0 mm 2 mps 662 mmHg 35%
    11:00 +26°C° 0 mm 2 mps 662 mmHg 32%
    12:00 +28°C° 0 mm 3 mps 662 mmHg 29%
    13:00 +28°C° 0.1 mm 3 mps 662 mmHg 28%
    14:00 +28°C° 0.1 mm 3 mps 662 mmHg 28%
    15:00 +28°C° 0.1 mm 3 mps 661 mmHg 27%
    16:00 +26°C° 0.2 mm 2 mps 661 mmHg 33%
    17:00 +24°C° 0.2 mm 2 mps 661 mmHg 39%
    18:00 +21°C° 0.2 mm 2 mps 660 mmHg 44%
    19:00 +20°C° 0.1 mm 2 mps 661 mmHg 48%
    20:00 +19°C° 0.1 mm 2 mps 661 mmHg 52%
    21:00 +18°C° 0.1 mm 3 mps 661 mmHg 56%
    22:00 +18°C° 0 mm 3 mps 661 mmHg 56%
    23:00 +17°C° 0 mm 3 mps 661 mmHg 56%

    25 September, Monday

    Time Temperature Precipitation Wind Pressure Humidity
    00:00 +17°C° 0 mm 2 mps 661 mmHg 57%
    01:00 +16°C° 0 mm 2 mps 661 mmHg 57%
    02:00 +16°C° 0 mm 2 mps 661 mmHg 57%
    03:00 +16°C° 0 mm 2 mps 661 mmHg 57%
    04:00 +15°C° 0 mm 2 mps 661 mmHg 57%
    05:00 +15°C° 0 mm 2 mps 661 mmHg 58%
    06:00 +15°C° 0 mm 2 mps 661 mmHg 59%
    07:00 +17°C° 0 mm 2 mps 661 mmHg 51%
    08:00 +19°C° 0 mm 2 mps 662 mmHg 44%
    09:00 +23°C° 0 mm 1 mps 662 mmHg 37%
    10:00 +24°C° 0 mm 2 mps 662 mmHg 33%
    11:00 +26°C° 0 mm 2 mps 662 mmHg 30%
    12:00 +27°C° 0 mm 2 mps 663 mmHg 26%
    13:00 +27°C° 0 mm 2 mps 662 mmHg 25%
    14:00 +28°C° 0 mm 2 mps 662 mmHg 24%
    15:00 +28°C° 0 mm 2 mps 662 mmHg 22%
    16:00 +26°C° 0 mm 2 mps 661 mmHg 27%
    17:00 +24°C° 0 mm 2 mps 661 mmHg 32%
    18:00 +20°C° 0 mm 2 mps 661 mmHg 37%
    19:00 +20°C° 0 mm 2 mps 661 mmHg 43%
    20:00 +19°C° 0 mm 2 mps 661 mmHg 49%
    21:00 +18°C° 0 mm 3 mps 662 mmHg 55%
    22:00 +18°C° 0 mm 3 mps 662 mmHg 58%
    23:00 +17°C° 0 mm 2 mps 662 mmHg 61%
    Show more